Home   Weather   Freistadt   Past weeks

Flag for Austria Past Weather in Freistadt, Upper Austria, Austria — Yesterday and Last 2 Weeks

Now
26 °F

Chilly.


Feels Like: 26 °F
Forecast: 29 / 42 °F
Wind: No wind

Location: Rohrbach

Current Time: Feb 25, 2017 at 3:15:23 am

Latest Report: Feb 25, 2017 at 2:00 am


Visibility: N/A

Pressure: 30.21 "Hg (28.12 "Hg at 565m altitude)

Humidity: 78%

Dew Point: 20 °F

Location of FreistadtLocation

Past Weather in Freistadt — Graph

°F

Freistadt Temperature Yesterday

Maximum temperature yesterday: 54 °F (at 12:00 am)
Minimum temperature yesterday: 31 °F (at 11:00 pm)
Average temperature yesterday: 41 °F

High & Low Weather Summary for the Past Weeks

 TemperatureHumidityPressure
High58 °F (Feb 23, 4:00 pm)99% (Feb 19, 9:00 am)30.68 "Hg (Feb 19, 9:00 am)
Low23 °F (Feb 15, 7:00 am)31% (Feb 23, 10:00 pm)29.44 "Hg (Feb 23, 7:00 pm)
Average36 °F81%30.23 "Hg
* Reported Feb 10 1:00 am — Feb 25 1:00 am, Freistadt, Weather by CustomWeather, © 2017

Note: Actual official high and low records may vary slightly from our data, if they occured in-between our weather recording intervals... More about our weather records

Advertising

Freistadt Weather History for the Previous 24 Hours

Scroll right to see more
 ConditionsComfort  
Time TempWeatherWind HumidityBarometerVisibility
1:00 am
Sat, Feb 25
27 °FChilly.No wind76%30.18 "HgN/A
12:00 am30 °FChilly.1 mph69%30.16 "HgN/A
11:00 pm
Fri, Feb 24
31 °FChilly.2 mph64%30.13 "HgN/A
10:00 pm32 °FChilly.1 mph63%30.11 "HgN/A
9:00 pm34 °FChilly.5 mph59%30.07 "HgN/A
8:00 pmN/APassing clouds.12 mphN/AN/A3 mi
7:00 pm36 °FChilly.3 mph54%29.99 "HgN/A
6:00 pm38 °FChilly.6 mph53%29.93 "HgN/A
5:00 pm41 °FQuite cool.5 mph53%29.88 "HgN/A
4:00 pm43 °FQuite cool.6 mph50%29.85 "HgN/A
3:00 pm43 °FQuite cool.6 mph53%29.83 "HgN/A
2:00 pm42 °FQuite cool.5 mph54%29.83 "HgN/A
1:00 pm37 °FFog.7 mph75%29.86 "HgN/A
12:00 pm41 °FQuite cool.7 mph57%29.84 "HgN/A
11:00 am40 °FQuite cool.6 mph60%29.83 "HgN/A
10:00 am40 °FQuite cool.6 mph60%29.81 "HgN/A
9:00 am40 °FQuite cool.6 mph60%29.78 "HgN/A
8:00 am40 °FQuite cool.6 mph59%29.74 "HgN/A
7:00 am41 °FPassing clouds.8 mph55%29.68 "Hg2 mi
6:00 am42 °FQuite cool.7 mph61%29.64 "HgN/A
4:00 am43 °FQuite cool.7 mph63%29.58 "HgN/A
3:00 am45 °FCool.7 mph68%29.54 "HgN/A
Weather by CustomWeather, © 2017

See weather overviewHow to use our weather pages